Location: Chiozzola
(44.8167°N, 10.4000°E)
Time: 21:50:32
(UTC+00:00)

Daily predictions for brighter satellites

Satellite Brightness Start Highest point End
(mag) Time Altitude Azimuth Time Altitude Azimuth Time Altitude Azimuth
CZ-4C R/B 2.7 18:27:25 10° SW 18:32:17 63° NW 18:38:12 10° NNE
Cosmos 2322 4.2 18:27:41 10° NNW 18:33:07 46° ENE 18:38:32 10° SE
Cosmos 2344 4.0 18:26:25 10° S 18:33:09 35° ESE 18:39:53 10° NE
Ariane Rocket 3.9 18:29:14 10° SE 18:33:37 31° ENE 18:38:02 10° N
Cosmos 1302 Rocket 4.1 18:29:11 10° NNW 18:34:31 76° ENE 18:39:47 10° SSE
Cosmos 1269 Rocket 4.0 18:29:22 10° SSW 18:34:39 75° ESE 18:39:58 10° NNE
Cosmos 2228 3.0 18:33:26 10° S 18:37:45 72° E 18:42:04 10° NNE
SL-08 RB Rocket 4.1 18:33:23 10° S 18:38:02 72° WSW 18:42:41 10° NNW
Okean-O 3.8 18:34:35 10° S 18:38:51 47° W 18:43:09 10° NNW
MetOp-A 4.2 18:34:58 10° SSE 18:40:14 65° ENE 18:45:34 10° N
ARGOS 4.1 18:36:07 10° S 18:41:22 53° W 18:46:39 10° NNW
Cosmos 482 Debris 4.1 18:38:28 10° WSW 18:41:31 49° NNW 18:43:39 10° NE
Cosmos 1408 3.3 18:39:10 10° N 18:42:26 33° ENE 18:45:41 10° SE
RESURS DK-1 3.4 18:40:30 10° SSE 18:43:52 25° ESE 18:47:17 10° NE
Cosmos 1300 3.8 18:41:31 10° SSW 18:45:13 50° WNW 18:48:56 10° N
CSL-04 Rocket 4.1 18:46:15 10° S 18:51:30 65° WSW 18:56:46 10° NNW
CENTAUR R/B 4.1 18:44:40 10° NW 18:52:33 50° WSW 19:01:02 10° S
Cosmos 2058 3.9 18:49:48 10° NNE 18:53:30 29° ENE 18:57:06 10° SE
CZ-2C R/B 3.5 18:50:20 10° N 18:55:24 54° WNW 19:00:30 10° SSW
Cosmos 1992 Rocket 4.3 18:51:43 10° NNW 18:56:48 50° ENE 19:01:51 10° SE
Cosmos 2058 Rocket 3.3 18:53:16 10° SSE 18:57:26 46° E 19:01:37 10° NNE
DMSP B5D2-2 4.2 18:52:52 10° NNE 18:58:08 84° WNW 19:03:23 10° SSW
Cosmos 2360 Rocket 2.8 18:53:33 10° NNW 18:59:07 58° WSW 19:04:37 10° S
ATLAS 3B R/B 3.2 18:52:39 10° NNW 18:59:29 52° NE 19:05:56 13° ESE
COSMOS 2487 2.2 18:57:59 10° SSW 19:01:22 73° ESE 19:04:47 10° NNE
Cosmos 1689 Rocket 4.5 18:59:32 10° N 19:02:00 27° WNW 19:04:26 10° SW
USA 186 2.0 18:59:17 10° S 19:02:30 70° WSW 19:05:38 10° NNW
COSMOS 2428 3.0 18:57:03 10° NNW 19:02:41 53° ENE 19:07:47 12° SE
Cosmos 1953 Rocket 3.5 18:58:47 10° N 19:03:11 85° E 19:07:31 10° S
USA 215 4.0 18:58:42 10° E 19:04:49 45° NNE 19:10:58 10° NW
SME Rocket 3.7 19:02:24 10° N 19:06:13 61° WNW 19:11:00 10° SSW
Cosmos 1092 Rocket 4.0 19:00:26 10° N 19:06:42 70° E 19:12:52 10° SSE
Cosmos 2333 4.3 19:01:57 10° NNW 19:07:45 87° WSW 19:13:29 10° SSE
Cosmos 1818 3.9 19:06:07 10° S 19:11:14 44° ESE 19:16:24 10° NE
FALCON 9 DEB 3.3 19:09:08 10° SW 19:12:26 49° SE 19:15:47 10° ENE
Cosmos 909 Rocket 4.3 19:06:57 10° S 19:13:01 46° ESE 19:19:03 10° NE
ERS-2 3.7 19:12:08 10° N 19:15:33 39° WNW 19:18:57 10° SW
Cosmos 44 3.5 19:10:44 10° SSW 19:15:39 54° ESE 19:20:51 10° NE
Resurs 01 Rocket 2.4 19:12:45 16° SE 19:15:49 36° ENE 19:19:53 10° N
Cosmos 2219 Rocket 2.2 19:10:25 10° NNW 19:16:09 78° ENE 19:21:13 13° SSE
Cosmos 1455 2.0 19:15:01 10° S 19:18:45 74° E 19:22:29 10° NNE
ATLAS 5 CENTAUR R/B 4.5 19:20:22 10° WNW 19:23:13 17° NNW 19:26:18 10° NNE
Resurs 1-3 3.5 19:23:13 12° SSE 19:27:12 78° ENE 19:31:36 10° N
Cosmos 1633 4.1 19:27:03 10° NNE 19:29:42 19° ENE 19:30:05 19° E
IGS 5A 4.1 19:27:42 23° SE 19:29:48 39° ENE 19:33:40 10° N
Cosmos 1356 4.0 19:27:56 10° N 19:31:10 37° ENE 19:32:13 29° ESE
Lacrosse 5 rocket 3.9 19:28:11 10° WNW 19:31:13 19° NNW 19:34:23 10° NNE
ATLAS 5 CENTAUR R/B 1.1 19:30:38 10° NW 19:32:28 50° SW 19:33:14 31° S
Abrixas rocket 3.5 19:32:12 10° SW 19:32:30 13° SW 19:32:30 13° SW
Cosmos 405 Rocket 3.0 19:31:39 10° N 19:35:35 50° ENE 19:37:21 28° SE
Cosmos 1140 Rocket 4.4 19:38:38 25° ESE 19:39:31 26° E 19:43:42 10° NE
SJ-6B 4.2 19:37:35 10° SSW 19:41:01 35° W 19:44:30 10° NNW
Cosmos 2279 Rocket 4.0 19:34:59 10° S 19:41:02 60° E 19:47:07 10° NNE
SPOT 5 4.4 19:40:17 16° ENE 19:41:26 17° ENE 19:44:29 10° NNE
Cosmos 2237 Rocket 2.8 19:37:31 10° NNW 19:42:52 42° ENE 19:45:36 25° ESE
Spot 2 Rocket 4.5 19:41:32 24° ESE 19:43:29 31° ENE 19:47:54 10° N
Exosat Rocket 3.8 19:37:08 10° NNW 19:43:42 90° NE 19:47:11 22° SSE
BREEZE-M DEB (TANK) 3.7 19:39:13 10° W 19:43:53 81° N 19:48:44 14° E
BREEZE-M DEB (TANK) 4.4 19:42:20 10° W 19:45:37 63° N 19:54:46 10° ENE
SL-8 R/B 3.6 19:41:48 10° WNW 19:46:40 84° SSW 19:48:58 31° ESE
CZ-2C R/B 3.9 19:44:42 10° NNE 19:48:59 44° E 19:50:38 30° SSE
OBJECT-B 3.0 19:46:49 10° SSW 19:49:30 24° W 19:52:13 10° NW
Cosmos 2026 Rocket 4.2 19:44:02 10° NNW 19:50:05 71° W 19:56:09 10° S
Terra 3.6 19:50:06 15° ENE 19:51:02 16° ENE 19:53:56 10° NNE
MetOp-B 4.2 19:52:09 28° SE 19:54:57 63° ENE 20:00:16 10° N
Cosmos 2227 Rocket 2.9 19:57:04 31° ESE 19:57:41 31° ESE 20:02:37 10° NE
SPOT 1/Viking Rocket 3.8 19:58:13 33° SE 20:00:20 55° ENE 20:05:26 10° N
Cosmos 389 Rocket 2.3 20:00:14 41° S 20:01:21 83° E 20:04:56 10° NNE
Cosmos 2251 Rocket 3.8 19:56:10 10° SSW 20:01:31 71° WNW 20:06:52 10° NNE
Cosmos 2297 Rocket 2.4 20:02:12 26° SSE 20:04:59 46° ESE 20:10:22 10° NE
Cosmos 2333 Rocket 3.4 20:01:01 10° NW 20:06:15 37° WSW 20:10:56 13° S
SPOT 3 Rocket 3.6 20:03:45 25° S 20:06:50 79° WSW 20:12:03 10° NNW
Cosmos 2266 Rocket 4.3 20:01:08 10° N 20:07:22 52° ENE 20:09:47 34° SE
Cosmos 2219 3.4 20:05:52 33° SSE 20:07:39 44° ESE 20:12:57 10° NE
Cosmos 1190 Rocket 4.4 20:07:40 39° ESE 20:08:18 40° ESE 20:13:10 10° NE
BREEZE-M DEB (TANK) 2.5 20:06:17 10° WNW 20:08:17 45° N 20:08:17 45° N
ATLAS 2AS CENTAUR R/B 3.9 20:01:14 10° WSW 20:08:53 50° NW 20:16:23 10° NNE
Cosmos 1825 3.8 20:05:53 10° NNW 20:09:17 32° W 20:11:58 14° SSW
ARIANE 5 R/B 3.0 20:09:20 42° E 20:10:00 46° ENE 20:14:13 10° N
Ariane Rocket 4.4 20:07:53 10° SSW 20:12:29 35° W 20:17:08 10° NNW
Timation 2 Rocket 4.3 20:10:14 27° SSE 20:13:28 46° ESE 20:19:31 10° NE
RESURS DK-1 4.2 20:18:02 10° WSW 20:21:46 32° NW 20:25:32 10° N
Landsat 7 4.0 20:20:37 35° S 20:22:34 67° WSW 20:27:20 10° NNW
USA 245 3.1 20:24:37 79° SE 20:24:49 84° ENE 20:28:19 10° NNW
Genesis I 4.1 20:21:32 10° NNW 20:25:17 37° NE 20:25:22 37° NE
Cosmos-2242 2.9 20:25:50 65° E 20:25:52 65° E 20:30:09 10° NNE
Meteor 2-16 Rocket 4.5 20:21:35 10° N 20:27:41 62° ENE 20:29:25 45° SE
Cosmos 1655 Rocket 4.0 20:28:57 10° N 20:35:16 86° W 20:37:46 39° S
SL-16 R/B 2.8 20:31:31 10° NNW 20:36:54 41° ENE 20:37:53 38° E
Cosmos 1980 3.8 20:32:31 10° NNW 20:38:12 73° WSW 20:39:45 48° S
Cosmos 2151 3.3 20:40:37 10° NNW 20:44:52 59° W 20:45:17 56° WSW
COSMOS 2428 4.5 20:41:59 10° NW 20:46:35 25° WSW 20:49:50 15° SW
Meteor 2-3 Rocket 3.7 20:41:16 10° NNW 20:47:04 82° W 20:48:26 54° S
Cosmos 2344 4.3 20:39:57 10° WSW 20:47:10 51° NW 20:55:02 10° NE
USA 215 3.2 20:45:38 49° SSE 20:47:35 77° SW 20:54:09 10° NW
Meteor 1-27 4.1 20:47:48 60° SSE 20:48:50 76° E 20:54:39 10° NNE
ATLAS 3B R/B 3.7 20:43:35 10° NW 20:50:06 41° WSW 20:53:12 28° SSW
Resurs 01 Rocket 3.6 20:50:18 17° SW 20:52:22 24° W 20:56:00 10° NW
ERS-1 Rocket 2.8 20:54:40 81° SE 20:54:53 85° ENE 20:59:57 10° NNW
Cosmos 407 Rocket 3.9 20:53:35 25° SW 20:56:31 59° WNW 21:01:38 10° NNE
Okean 3 Rocket 3.8 20:55:22 10° N 20:59:21 66° NNE 20:59:21 66° NNE
CARTOSAT-1 4.0 21:04:22 55° W 21:04:22 55° W 21:08:22 10° NNW
Cosmos 1766 Rocket 3.9 20:59:56 10° N 21:03:29 59° N 21:03:29 59° N
Cosmos 1633 4.4 21:01:24 10° NNW 21:04:10 26° W 21:04:10 26° W
Meteor 2-15 4.3 21:09:37 67° E 21:09:40 67° E 21:15:42 10° NNE
Lacrosse 5 rocket 4.0 21:08:54 10° NW 21:11:44 17° N 21:14:12 12° NE
Cosmos 1954 Rocket 4.0 21:12:17 74° NNE 21:12:17 74° NNE 21:16:58 10° NNE
COSMOS 2455 2.9 21:18:15 61° ENE 21:18:15 61° ENE 21:23:23 10° NE
SPOT 5 3.3 21:19:30 54° WNW 21:19:30 54° WNW 21:23:39 10° NNW
Cosmos 2237 Rocket 3.4 21:21:51 10° NW 21:26:46 32° WSW 21:27:26 31° WSW
SeaSat 1 4.1 21:22:40 10° NE 21:24:38 23° NE 21:24:38 23° NE
Terra 2.3 21:28:59 57° NW 21:28:59 57° NW 21:33:01 10° NNW
Timation 1 Rocket 4.2 21:33:37 84° NW 21:33:37 84° NW 21:39:34 10° NNE
Cosmos 2082 3.8 21:39:13 71° N 21:39:13 71° N 21:44:19 10° NNE
Cosmos 2263 Rocket 3.9 21:42:46 21° NE 21:42:46 21° NE 21:44:52 10° NE
Cosmos 2227 Rocket 3.2 21:38:46 25° WSW 21:41:34 42° WNW 21:46:58 10° NNE
USA 229 DEB 4.5 21:37:21 10° NNW 21:44:21 48° NE 21:46:08 41° E
USA 229 4.5 21:37:26 10° NNW 21:44:26 48° NE 21:46:15 41° E
Cosmos 468 Rocket 4.5 21:39:40 10° NNW 21:43:44 57° NNW 21:43:44 57° NNW
Cosmos 2297 Rocket 3.8 21:44:15 10° WSW 21:49:13 31° NW 21:54:12 10° N
Cosmos 841 Rocket 4.4 21:47:34 10° NNW 21:51:30 43° NNE 21:51:30 43° NNE
Cosmos 1745 Rocket 4.1 21:50:49 10° N 21:56:33 65° NE 21:56:33 65° NE
NOSS 3-1 (A) 4.4 21:55:01 10° NNW 22:02:19 56° NE 22:04:04 48° E
Cosmos 1763 Rocket 4.4 21:59:25 10° NNW 22:02:59 43° NW 22:02:59 43° NW
S3M 4.2 22:08:54 68° NNE 22:08:54 68° NNE 22:14:30 10° N
SL-16 R/B 3.6 22:15:52 10° NW 22:19:46 30° W 22:19:46 30° W
NOSS 3-1 (C) 4.0 22:21:00 10° NW 22:28:35 81° SW 22:28:42 81° SW
Cosmos 1943 4.1 22:45:14 10° NNW 22:48:59 43° NW 22:48:59 43° NW
Lacrosse 5 rocket 3.8 22:47:56 10° NW 22:49:48 22° NNW 22:49:48 22° NNW
SeaSat 1 4.1 23:00:32 10° N 23:04:24 29° NW 23:04:24 29° NW
Cosmos 2315 Rocket 4.4 23:10:31 58° NNW 23:10:31 58° NNW 23:15:49 10° N
Cosmos 2263 Rocket 3.4 23:24:25 36° NW 23:24:25 36° NW 23:28:53 10° NNE
USA 281 3.3 23:33:03 71° NNE 23:33:03 71° NNE 23:39:00 10° NNW
Cosmos 1844 Rocket 3.8 23:39:31 39° NE 23:39:31 39° NE 23:43:00 10° NNE
Cosmos 2074 Rocket 4.4 23:38:22 10° N 23:43:22 59° NNW 23:43:22 59° NNW
SJ 16-02 4.2 23:56:01 11° ENE 23:56:01 11° ENE 23:56:21 10° ENE
